Sedgwick Reserve, California Weather observations

Data are for 10 minute period ending at time listed.
 Day   Time   Solar   Ave.   Ave.  Ave.  Vector  Max.   Baro.   Total    
  of    of     Rad.   Air    Rel.  Wind   Wind   Wind  Press.  Precip.   
Year   Day            Temp.  Hum.  Speed  Dir.   Gust                    
2017   (PST)  Kw/m2    F      %     mph   deg.    mph    mb.     in.     
-------------------------------------------------------------------------
 112    7:30   0.43   61.7    60    2.9   114     5.3   972.5    0.00 
 112    7:40   0.47   61.5    58    3.2   123     5.0   972.6    0.00 
 112    7:50   0.51   61.6    58    2.3   117     5.3   972.5    0.00 
 112    8:00   0.54   63.0    54    1.4   146     2.6   972.5    0.00 
 112    8:10   0.57   64.5    49    0.7   129     3.7   972.5    0.00 
 112    8:20   0.60   66.9    48    1.6    83     3.7   972.5    0.00 
 112    8:30   0.64   67.9    46    2.2   121     5.1   972.4    0.00 
 112    8:40   0.67   68.5    43    1.6   132     4.3   972.3    0.00 
 112    8:50   0.69   68.9    43    2.1   130     5.5   972.2    0.00 
 112    9:00   0.72   70.4    43    2.8   120     5.7   972.1    0.00 
 112    9:10   0.75   72.2    41    3.1   112     6.0   972.0    0.00 
 112    9:20   0.77   72.3    40    2.9   143     6.2   972.0    0.00 
 112    9:30   0.80   72.6    38    2.4   136     4.7   972.0    0.00 
 112    9:40   0.81   73.8    36    2.6   101     4.7   971.9    0.00 
 112    9:50   0.82   73.9    36    2.1    78     4.4   971.9    0.00 
 112   10:00   0.85   75.9    35    2.5   166     6.6   971.9    0.00 
 112   10:10   0.85   76.0    35    4.4   184     8.3   971.8    0.00 
 112   10:20   0.87   75.9    35    2.9   187     7.7   971.7    0.00 
 112   10:30   0.89   76.9    36    4.8   241     9.1   971.6    0.00 
 112   10:40   0.91   76.4    36    4.7   280    10.1   971.5    0.00 
 112   10:50   0.86   76.9    36    4.6   273     7.5   971.4    0.00 
 112   11:00   0.91   78.7    34    3.7   247     8.4   971.3    0.00 
 112   11:10   0.90   79.1    34    4.0   291     8.1   971.2    0.00 
 112   11:20   0.92   79.5    33    4.1   251     8.1   971.1    0.00 
 112   11:30   0.89   79.9    33    5.9   273    10.5   971.0    0.00 
 112   11:40   0.92   80.2    34    6.8   244    12.1   971.0    0.00 
 112   11:50   0.91   80.1    34    6.1   244    14.9   970.8    0.00 
 112   12:00   0.92   80.8    34    6.7   255    12.3   970.8    0.00 
 112   12:10   0.91   82.1    34    6.7   253    14.5   970.7    0.00 
 112   12:20   0.86   81.6    35    7.5   246    13.2   970.7    0.00 
 112   12:30   0.88   82.1    34    7.8   245    14.1   970.6    0.00 
 112   12:40   0.87   82.6    34    7.4   257    14.5   970.6    0.00 
 112   12:50   0.88   81.8    34   10.3   269    17.0   970.6    0.00 
 112   13:00   0.87   81.9    33    9.5   258    16.1   970.6    0.00 
 112   13:10   0.85   82.3    33    8.8   273    15.2   970.6    0.00 
 112   13:20   0.84   82.3    34   10.4   269    16.1   970.6    0.00 
 112   13:30   0.81   82.1    34   10.1   286    18.2   970.7    0.00 
 112   13:40   0.80   82.0    34   11.1   279    17.6   970.7    0.00 
 112   13:50   0.74   80.4    34   11.1   279    18.9   970.7    0.00 
 112   14:00   0.72   79.8    35   12.6   276    19.2   970.7    0.00 
 112   14:10   0.74   79.1    36   13.2   282    18.5   970.6    0.00 
 112   14:20   0.72   78.7    36   12.3   277    18.5   970.5    0.00 
 112   14:30   0.70   78.5    36   12.2   277    19.9   970.4    0.00 
 112   14:40   0.67   78.7    35   11.5   273    18.6   970.4    0.00 
 112   14:50   0.65   77.6    35   11.2   288    17.2   970.4    0.00 
 112   15:00   0.61   77.9    35    8.9   277    16.7   970.3    0.00 
 112   15:10   0.54   76.8    36   12.5   274    22.0   970.2    0.00 
 112   15:20   0.56   75.7    36   12.5   270    20.8   970.2    0.00 
 112   15:30   0.53   76.7    36    9.2   276    16.3   970.2    0.00 
 112   15:40   0.50   76.9    36   11.5   278    21.9   970.2    0.00 
 112   15:50   0.43   75.4    36   14.0   272    20.5   970.2    0.00 
 112   16:00   0.37   74.6    37   13.4   272    18.9   970.3    0.00 
 112   16:10   0.38   74.9    37    9.9   274    18.6   970.3    0.00 
 112   16:20   0.33   74.8    37   11.2   289    18.6   970.4    0.00 
 112   16:30   0.23   72.7    40   11.4   269    19.8   970.3    0.00 
 112   16:40   0.32   73.0    39   10.3   268    18.6   970.4    0.00 
 112   16:50   0.27   73.0    39    9.2   268    15.9   970.6    0.00 
 112   17:00   0.22   72.3    40    9.4   277    17.4   970.6    0.00 
 112   17:10   0.20   72.8    40    6.4   270    14.5   970.6    0.00 
 112   17:20   0.11   71.2    41    7.1   269    13.5   970.8    0.00 
 112   17:30   0.12   69.8    42    7.9   273    14.5   970.9    0.00 
 112   17:40   0.10   69.4    44    7.8   263    13.9   971.0    0.00 
 112   17:50   0.09   68.0    47    6.7   261    11.1   970.8    0.00 
 112   18:00   0.07   67.1    49    6.9   272    11.3   970.9    0.00 
 112   18:10   0.04   66.7    50    5.0   255     9.4   970.9    0.00 
 112   18:20   0.03   65.8    51    4.5   220     7.2   970.9    0.00 
 112   18:30   0.01   64.6    54    5.8   235     9.9   971.1    0.00 
 112   18:40   0.00   63.7    57    4.8   238     7.7   971.1    0.00 
 112   18:50   0.00   62.6    61    3.8   172     7.0   971.2    0.00 
 112   19:00   0.00   60.0    70    3.8   104     6.7   971.3    0.00 
 112   19:10   0.00   58.3    75    4.6    84     8.0   971.3    0.00 
 112   19:20   0.00   57.7    77    3.0   142     5.8   971.4    0.00 
 112   19:30   0.00   57.2    78    2.6   157     3.5   971.3    0.00 
 112   19:40   0.00   57.0    79    1.1   188     2.4   971.3    0.00 
 112   19:50   0.00   56.0    81    2.3    14     3.4   971.4    0.00 
 112   20:00   0.00   55.5    82    1.0   287     2.8   971.5    0.00 
 112   20:10   0.00   54.9    83    2.5     5     5.0   971.5    0.00 
 112   20:20   0.00   54.2    84    3.7   304     6.4   971.5    0.00 
 112   20:30   0.00   54.8    83    4.2   284     6.7   971.7    0.00 
 112   20:40   0.00   54.6    84    2.4   303     4.2   972.0    0.00 
 112   20:50   0.00   54.6    83    2.6   348     5.4   972.3    0.00 
 112   21:00   0.00   54.4    82    2.2   286     4.2   972.3    0.00 
 112   21:10   0.00   53.7    84    1.7   119     2.8   972.2    0.00 
 112   21:20   0.00   53.0    85    2.5   191     4.2   972.2    0.00 
 112   21:30   0.00   53.3    85    2.8   141     5.6   972.0    0.00 
 112   21:40   0.00   52.3    87    2.4    74     5.7   972.0    0.00 
 112   21:50   0.00   52.4    88    1.7   217     3.1   971.9    0.00 
 112   22:00   0.00   52.4    88    3.0   116     5.8   971.9    0.00 
 112   22:10   0.00   52.0    89    4.0   108     6.0   971.7    0.00 
 112   22:20   0.00   51.4    91    2.4   153     5.3   971.4    0.00 
 112   22:30   0.00   51.2    93    4.2   235     7.0   971.5    0.00 
 112   22:40   0.00   51.6    92    3.0   311     4.6   971.5    0.00 
 112   22:50   0.00   50.8    93    4.1   352     5.4   971.6    0.00 
 112   23:00   0.00   50.6    94    3.4   356     5.0   971.4    0.00 
 112   23:10   0.00   50.6    94    2.0   356     3.6   971.2    0.00 
 112   23:20   0.00   50.1    94    2.0     7     3.3   971.2    0.00 
 112   23:30   0.00   49.1    94    2.0   307     3.9   971.2    0.00 
 112   23:40   0.00   49.0    94    3.1   272     4.2   971.2    0.00 
 112   23:50   0.00   48.8    94    2.5   348     3.5   971.3    0.00 
 113    0:00   0.00   48.3    94    1.2   309     2.9   971.3    0.00 
 113    0:10   0.00   48.0    94    0.5   284     1.2   971.2    0.00 
 113    0:20   0.00   47.2    94    2.3    12     4.3   971.1    0.00 
 113    0:30   0.00   47.0    95    1.6   259     3.4   971.0    0.00 
 113    0:40   0.00   47.0    95    3.5   286     4.7   970.9    0.00 
 113    0:50   0.00   46.0    95    2.6     2     3.4   970.8    0.00 
 113    1:00   0.00   46.2    96    1.6   335     3.4   970.5    0.00 
 113    1:10   0.00   46.0    95    1.3   220     2.6   970.5    0.00 
 113    1:20   0.00   45.9    96    2.1   267     3.1   970.4    0.00 
 113    1:30   0.00   46.0    96    0.7   284     2.6   970.3    0.00 
 113    1:40   0.00   45.6    96    2.2     4     3.9   970.2    0.00 
 113    1:50   0.00   46.0    97    2.6     1     4.2   970.0    0.00 
 113    2:00   0.00   47.0    96    1.6   274     2.9   969.9    0.00 
 113    2:10   0.00   47.6    96    1.9   321     2.9   969.9    0.00 
 113    2:20   0.00   47.3    96    3.2     4     4.0   969.9    0.00 
 113    2:30   0.00   48.1    97    2.9   308     4.4   970.0    0.00 
 113    2:40   0.00   49.2    97    1.3   344     2.6   970.0    0.00 
 113    2:50   0.00   49.1    97    1.4    11     2.6   970.0    0.00 
 113    3:00   0.00   49.4    98    0.8   321     1.9   970.2    0.00 
 113    3:10   0.00   49.7    98    1.3    37     3.3   970.2    0.00 
 113    3:20   0.00   49.8    98    1.3    35     2.8   970.1    0.00 
 113    3:30   0.00   49.8    98    1.4    30     2.1   970.1    0.00 
 113    3:40   0.00   49.9    98    1.4    50     4.0   970.1    0.00 
 113    3:50   0.00   49.9    99    3.0    64     4.8   969.9    0.00 
 113    4:00   0.00   49.9    99    0.7   268     2.0   970.2    0.00 
 113    4:10   0.00   49.9    99    1.5    18     2.9   970.3    0.00 
 113    4:20   0.00   49.9    99    1.7    22     3.1   970.3    0.00 
 113    4:30   0.00   50.0    99    1.1    52     2.7   970.1    0.00 
 113    4:40   0.00   50.1    99    1.1    68     2.6   970.0    0.00 
 113    4:50   0.00   50.1    99    1.8    79     3.1   970.0    0.00 
 113    5:00   0.00   50.1    99    1.8    19     3.3   970.2    0.00 
 113    5:10   0.00   49.9    99    2.4    66     4.5   970.3    0.00 
 113    5:20   0.00   49.9    99    2.6    70     4.4   970.3    0.00 
 113    5:30   0.00   49.8    99    1.1    25     2.8   970.6    0.00 
 113    5:40   0.01   49.6    99    1.7    19     3.4   970.8    0.00 
 113    5:50   0.01   49.7    99    2.2    53     4.0   970.8    0.00 
 113    6:00   0.02   49.7    99    1.9    84     5.0   970.8    0.00 
 113    6:10   0.01   49.4    99    2.6   270     5.0   970.9    0.00 
 113    6:20   0.02   49.4    99    2.6   256     4.7   971.3    0.00 
 113    6:30   0.03   49.7    99    1.0    64     3.1   971.5    0.00 
 113    6:40   0.04   50.0    99    1.6    16     3.9   971.6    0.00 
 113    6:50   0.05   50.2    99    0.3    53     1.4   971.6    0.00 
 113    7:00   0.07   50.6    99    1.1    97     2.7   971.7    0.00 
 113    7:10   0.08   50.7    98    2.5   118     4.6   971.6    0.00 
 113    7:20   0.08   50.5    98    2.6    92     5.7   971.7    0.00 

Return to Sedgwick Reserve graphs page.


Western Regional Climate Center,wrcc@dri.edu